,,PressureMeas_1m,,PRMeasQMR101_1,,RHStat155_1m_1,,SRMeasQMS101R_1m,,TAStat155_1m_1,,GenWind_1,,GenWind_1,
2018-12-15, 00:00:06,VALID,919.606,VALID,0.0,VALID,89.393,VALID,0.058,VALID,19.165,VALID,99.0,VALID,0.0,
2018-12-15, 00:01:06,VALID,919.587,VALID,0.0,VALID,89.811,VALID,0.069,VALID,19.17,VALID,104.0,VALID,0.0,
2018-12-15, 00:02:06,VALID,919.577,VALID,0.0,VALID,89.902,VALID,0.064,VALID,19.17,VALID,102.0,VALID,0.0,
2018-12-15, 00:03:06,VALID,919.566,VALID,0.0,VALID,89.972,VALID,0.057,VALID,19.17,VALID,96.0,VALID,0.0,
2018-12-15, 00:04:06,VALID,919.568,VALID,0.0,VALID,89.926,VALID,0.058,VALID,19.154,VALID,100.0,VALID,0.0,
2018-12-15, 00:05:06,VALID,919.559,VALID,0.0,VALID,89.651,VALID,0.058,VALID,19.141,VALID,101.0,VALID,0.0,
2018-12-15, 00:06:06,VALID,919.562,VALID,0.0,VALID,89.221,VALID,0.035,VALID,19.134,VALID,99.0,VALID,0.0,
2018-12-15, 00:07:06,VALID,919.532,VALID,0.0,VALID,89.195,VALID,0.059,VALID,19.135,VALID,106.0,VALID,0.0,
2018-12-15, 00:08:06,VALID,919.523,VALID,0.0,VALID,88.986,VALID,0.055,VALID,19.153,VALID,101.0,VALID,0.0,
2018-12-15, 00:09:06,VALID,919.518,VALID,0.0,VALID,89.021,VALID,0.048,VALID,19.164,VALID,101.0,VALID,0.0,
2018-12-15, 00:10:06,VALID,919.511,VALID,0.0,VALID,89.502,VALID,0.015,VALID,19.159,VALID,98.0,VALID,0.0,
2018-12-15, 00:11:06,VALID,919.495,VALID,0.0,VALID,89.819,VALID,-0.04,VALID,19.135,VALID,104.0,VALID,0.0,
2018-12-15, 00:12:06,VALID,919.472,VALID,0.0,VALID,89.853,VALID,-0.031,VALID,19.12,VALID,99.0,VALID,0.0,
2018-12-15, 00:13:06,VALID,919.447,VALID,0.0,VALID,89.819,VALID,-0.031,VALID,19.102,VALID,100.0,VALID,0.0,
2018-12-15, 00:14:06,VALID,919.435,VALID,0.0,VALID,89.782,VALID,-0.026,VALID,19.095,VALID,102.0,VALID,0.0,
2018-12-15, 00:15:06,VALID,919.406,VALID,0.0,VALID,89.69,VALID,-0.043,VALID,19.076,VALID,107.0,VALID,0.0,
2018-12-15, 00:16:06,VALID,919.397,VALID,0.0,VALID,89.522,VALID,-0.018,VALID,19.064,VALID,108.0,VALID,0.0,
2018-12-15, 00:17:06,VALID,919.372,VALID,0.0,VALID,89.562,VALID,-0.024,VALID,19.063,VALID,106.0,VALID,0.0,
2018-12-15, 00:18:06,VALID,919.367,VALID,0.0,VALID,90.241,VALID,-0.04,VALID,19.047,VALID,102.0,VALID,0.0,
2018-12-15, 00:19:06,VALID,919.358,VALID,0.0,VALID,90.165,VALID,-0.044,VALID,19.026,VALID,98.0,VALID,0.0,
2018-12-15, 00:20:06,VALID,919.336,VALID,0.0,VALID,90.408,VALID,-0.05,VALID,19.026,VALID,99.0,VALID,0.0,
2018-12-15, 00:21:06,VALID,919.306,VALID,0.0,VALID,90.069,VALID,-0.047,VALID,19.022,VALID,100.0,VALID,0.0,
2018-12-15, 00:22:06,VALID,919.287,VALID,0.0,VALID,89.893,VALID,-0.044,VALID,19.033,VALID,99.0,VALID,0.0,
2018-12-15, 00:23:06,VALID,919.279,VALID,0.0,VALID,90.047,VALID,-0.047,VALID,19.042,VALID,101.0,VALID,0.0,
2018-12-15, 00:24:06,VALID,919.265,VALID,0.0,VALID,89.827,VALID,-0.047,VALID,19.035,VALID,108.0,VALID,0.0,
2018-12-15, 00:25:06,VALID,919.243,VALID,0.0,VALID,89.515,VALID,-0.047,VALID,19.045,VALID,109.0,VALID,0.0,
2018-12-15, 00:26:06,VALID,919.212,VALID,0.0,VALID,89.478,VALID,-0.016,VALID,19.053,VALID,108.0,VALID,0.0,
2018-12-15, 00:27:06,VALID,919.22,VALID,0.0,VALID,88.997,VALID,-0.016,VALID,19.075,VALID,105.0,VALID,0.0,
2018-12-15, 00:28:06,VALID,919.185,VALID,0.0,VALID,88.954,VALID,-0.012,VALID,19.104,VALID,106.0,VALID,0.0,
2018-12-15, 00:29:06,VALID,919.167,VALID,0.0,VALID,89.188,VALID,0.001,VALID,19.112,VALID,112.0,VALID,0.0,
2018-12-15, 00:30:06,VALID,919.127,VALID,0.0,VALID,90.279,VALID,-0.015,VALID,19.105,VALID,116.0,VALID,0.0,
2018-12-15, 00:31:06,VALID,919.123,VALID,0.0,VALID,90.672,VALID,-0.035,VALID,19.059,VALID,114.0,VALID,0.0,
2018-12-15, 00:32:06,VALID,919.099,VALID,0.0,VALID,89.793,VALID,-0.016,VALID,19.024,VALID,114.0,VALID,0.0,
2018-12-15, 00:33:06,VALID,919.059,VALID,0.0,VALID,88.809,VALID,-0.013,VALID,19.079,VALID,108.0,VALID,0.0,
2018-12-15, 00:34:06,VALID,919.032,VALID,0.0,VALID,89.096,VALID,-0.032,VALID,19.144,VALID,107.0,VALID,0.0,
2018-12-15, 00:35:06,VALID,919.013,VALID,0.0,VALID,89.178,VALID,-0.018,VALID,19.169,VALID,108.0,VALID,0.0,
2018-12-15, 00:36:06,VALID,918.991,VALID,0.0,VALID,89.23,VALID,-0.009,VALID,19.154,VALID,109.0,VALID,0.0,
2018-12-15, 00:37:06,VALID,918.975,VALID,0.0,VALID,89.199,VALID,-0.007,VALID,19.128,VALID,110.0,VALID,0.0,
2018-12-15, 00:38:06,VALID,918.939,VALID,0.0,VALID,88.846,VALID,0.01,VALID,19.121,VALID,110.0,VALID,0.0,
2018-12-15, 00:39:06,VALID,918.928,VALID,0.0,VALID,88.642,VALID,-0.001,VALID,19.121,VALID,110.0,VALID,0.0,
2018-12-15, 00:40:06,VALID,918.912,VALID,0.0,VALID,88.436,VALID,-0.0,VALID,19.117,VALID,112.0,VALID,0.0,
2018-12-15, 00:41:06,VALID,918.923,VALID,0.0,VALID,87.391,VALID,0.017,VALID,19.12,VALID,111.0,VALID,0.0,
2018-12-15, 00:42:06,VALID,918.913,VALID,0.0,VALID,87.235,VALID,0.015,VALID,19.148,VALID,102.0,VALID,0.0,
2018-12-15, 00:43:06,VALID,918.906,VALID,0.0,VALID,87.499,VALID,0.01,VALID,19.166,VALID,98.0,VALID,0.0,
2018-12-15, 00:44:06,VALID,918.887,VALID,0.0,VALID,88.734,VALID,0.013,VALID,19.172,VALID,93.0,VALID,0.0,
2018-12-15, 00:45:06,VALID,918.878,VALID,0.0,VALID,89.28,VALID,0.026,VALID,19.13,VALID,95.0,VALID,0.0,
2018-12-15, 00:46:06,VALID,918.868,VALID,0.0,VALID,89.722,VALID,0.002,VALID,19.059,VALID,98.0,VALID,0.0,
2018-12-15, 00:47:06,VALID,918.847,VALID,0.0,VALID,89.678,VALID,0.01,VALID,19.009,VALID,99.0,VALID,0.0,
2018-12-15, 00:48:06,VALID,918.844,VALID,0.0,VALID,89.99,VALID,0.02,VALID,18.973,VALID,99.0,VALID,0.0,
2018-12-15, 00:49:06,VALID,918.82,VALID,0.0,VALID,90.277,VALID,-0.002,VALID,18.951,VALID,97.0,VALID,0.0,
2018-12-15, 00:50:06,VALID,918.798,VALID,0.0,VALID,90.341,VALID,0.011,VALID,18.914,VALID,97.0,VALID,0.0,
2018-12-15, 00:51:06,VALID,918.763,VALID,0.0,VALID,90.167,VALID,0.013,VALID,18.891,VALID,100.0,VALID,0.0,
2018-12-15, 00:52:06,VALID,918.734,VALID,0.0,VALID,89.971,VALID,0.026,VALID,18.903,VALID,99.0,VALID,0.0,
2018-12-15, 00:53:06,VALID,918.765,VALID,0.0,VALID,89.803,VALID,0.019,VALID,18.928,VALID,93.0,VALID,0.0,
2018-12-15, 00:54:06,VALID,918.742,VALID,0.0,VALID,89.025,VALID,0.003,VALID,18.919,VALID,93.0,VALID,0.0,
2018-12-15, 00:55:06,VALID,918.754,VALID,0.0,VALID,88.436,VALID,-0.014,VALID,18.941,VALID,94.0,VALID,0.0,
2018-12-15, 00:56:06,VALID,918.74,VALID,0.0,VALID,88.714,VALID,-0.007,VALID,18.953,VALID,99.0,VALID,0.0,
2018-12-15, 00:57:06,VALID,918.749,VALID,0.0,VALID,88.335,VALID,-0.014,VALID,18.952,VALID,99.0,VALID,0.0,
2018-12-15, 00:58:06,VALID,918.738,VALID,0.0,VALID,87.971,VALID,-0.018,VALID,18.96,VALID,100.0,VALID,0.0,
2018-12-15, 00:59:06,VALID,918.737,VALID,0.0,VALID,87.777,VALID,-0.014,VALID,18.981,VALID,105.0,VALID,0.0,
2018-12-15, 01:00:06,VALID,918.733,VALID,0.0,VALID,87.532,VALID,0.0,VALID,19.009,VALID,109.0,VALID,0.0,
2018-12-15, 01:01:06,VALID,918.714,VALID,0.0,VALID,87.319,VALID,-0.009,VALID,19.046,VALID,110.0,VALID,0.0,
2018-12-15, 01:02:06,VALID,918.7,VALID,0.0,VALID,86.939,VALID,-0.002,VALID,19.08,VALID,108.0,VALID,0.0,
2018-12-15, 01:03:06,VALID,918.674,VALID,0.0,VALID,87.361,VALID,-0.011,VALID,19.111,VALID,106.0,VALID,0.0,
2018-12-15, 01:04:06,VALID,918.656,VALID,0.0,VALID,86.731,VALID,-0.001,VALID,19.094,VALID,113.0,VALID,0.0,
2018-12-15, 01:05:06,VALID,918.644,VALID,0.0,VALID,85.669,VALID,-0.001,VALID,19.124,VALID,112.0,VALID,0.0,
2018-12-15, 01:06:06,VALID,918.631,VALID,0.0,VALID,85.177,VALID,-0.02,VALID,19.161,VALID,116.0,VALID,0.0,
2018-12-15, 01:07:06,VALID,918.626,VALID,0.0,VALID,83.492,VALID,-0.001,VALID,19.25,VALID,115.0,VALID,0.0,
2018-12-15, 01:08:06,VALID,918.609,VALID,0.0,VALID,82.422,VALID,-0.01,VALID,19.373,VALID,114.0,VALID,0.0,
2018-12-15, 01:09:06,VALID,918.587,VALID,0.0,VALID,81.371,VALID,-0.006,VALID,19.472,VALID,114.0,VALID,0.0,
2018-12-15, 01:10:06,VALID,918.583,VALID,0.0,VALID,81.396,VALID,-0.02,VALID,19.549,VALID,117.0,VALID,0.0,
2018-12-15, 01:11:06,VALID,918.54,VALID,0.0,VALID,81.049,VALID,0.004,VALID,19.61,VALID,117.0,VALID,0.0,
2018-12-15, 01:12:06,VALID,918.543,VALID,0.0,VALID,81.881,VALID,0.016,VALID,19.617,VALID,114.0,VALID,0.0,
2018-12-15, 01:13:06,VALID,918.502,VALID,0.0,VALID,82.347,VALID,0.013,VALID,19.556,VALID,115.0,VALID,0.0,
2018-12-15, 01:14:06,VALID,918.487,VALID,0.0,VALID,82.665,VALID,0.001,VALID,19.529,VALID,105.0,VALID,0.0,
2018-12-15, 01:15:06,VALID,918.48,VALID,0.0,VALID,84.141,VALID,0.024,VALID,19.488,VALID,92.0,VALID,0.0,
2018-12-15, 01:16:06,VALID,918.458,VALID,0.0,VALID,84.565,VALID,0.004,VALID,19.385,VALID,88.0,VALID,0.0,
2018-12-15, 01:17:06,VALID,918.437,VALID,0.0,VALID,83.857,VALID,0.004,VALID,19.309,VALID,87.0,VALID,0.0,
2018-12-15, 01:18:06,VALID,918.426,VALID,0.0,VALID,83.853,VALID,0.01,VALID,19.293,VALID,87.0,VALID,0.0,
2018-12-15, 01:19:06,VALID,918.405,VALID,0.0,VALID,84.109,VALID,0.001,VALID,19.27,VALID,87.0,VALID,0.0,
2018-12-15, 01:20:06,VALID,918.403,VALID,0.0,VALID,84.005,VALID,0.005,VALID,19.252,VALID,92.0,VALID,0.0,
2018-12-15, 01:21:06,VALID,918.398,VALID,0.0,VALID,84.793,VALID,0.007,VALID,19.235,VALID,101.0,VALID,0.0,
2018-12-15, 01:22:06,VALID,918.365,VALID,0.0,VALID,85.791,VALID,0.025,VALID,19.192,VALID,107.0,VALID,0.0,
2018-12-15, 01:23:06,VALID,918.372,VALID,0.0,VALID,84.626,VALID,0.031,VALID,19.161,VALID,111.0,VALID,0.0,
2018-12-15, 01:24:06,VALID,918.375,VALID,0.0,VALID,84.833,VALID,-0.008,VALID,19.203,VALID,115.0,VALID,0.0,
2018-12-15, 01:25:06,VALID,918.368,VALID,0.0,VALID,86.316,VALID,-0.005,VALID,19.243,VALID,117.0,VALID,0.0,
2018-12-15, 01:26:06,VALID,918.387,VALID,0.0,VALID,86.984,VALID,-0.018,VALID,19.21,VALID,118.0,VALID,0.0,
2018-12-15, 01:27:06,VALID,918.372,VALID,0.0,VALID,90.418,VALID,0.015,VALID,19.148,VALID,117.0,VALID,0.0,
2018-12-15, 01:28:06,VALID,918.351,VALID,0.0,VALID,91.63,VALID,0.01,VALID,18.958,VALID,119.0,VALID,0.0,
2018-12-15, 01:29:06,VALID,918.354,VALID,0.0,VALID,92.09,VALID,0.001,VALID,18.839,VALID,118.0,VALID,0.0,
2018-12-15, 01:30:06,VALID,918.347,VALID,0.0,VALID,91.992,VALID,0.009,VALID,18.791,VALID,121.0,VALID,0.0,
2018-12-15, 01:31:06,VALID,918.333,VALID,0.0,VALID,92.069,VALID,-0.01,VALID,18.774,VALID,123.0,VALID,0.0,
2018-12-15, 01:32:06,VALID,918.324,VALID,0.0,VALID,90.747,VALID,0.012,VALID,18.785,VALID,125.0,VALID,0.0,
2018-12-15, 01:33:06,VALID,918.305,VALID,0.0,VALID,90.178,VALID,-0.002,VALID,18.871,VALID,125.0,VALID,0.0,
2018-12-15, 01:34:06,VALID,918.295,VALID,0.0,VALID,89.353,VALID,0.014,VALID,18.932,VALID,129.0,VALID,0.0,
2018-12-15, 01:35:06,VALID,918.283,VALID,0.0,VALID,88.193,VALID,0.005,VALID,19.016,VALID,131.0,VALID,0.0,
2018-12-15, 01:36:06,VALID,918.266,VALID,0.0,VALID,86.575,VALID,-0.001,VALID,19.106,VALID,130.0,VALID,0.0,
2018-12-15, 01:37:06,VALID,918.263,VALID,0.0,VALID,85.881,VALID,0.008,VALID,19.202,VALID,129.0,VALID,0.0,
2018-12-15, 01:38:06,VALID,918.254,VALID,0.0,VALID,85.36,VALID,0.004,VALID,19.232,VALID,127.0,VALID,0.0,
2018-12-15, 01:39:06,VALID,918.241,VALID,0.0,VALID,84.9,VALID,-0.006,VALID,19.266,VALID,128.0,VALID,0.0,
2018-12-15, 01:40:06,VALID,918.239,VALID,0.0,VALID,84.371,VALID,-0.0,VALID,19.305,VALID,127.0,VALID,0.0,
2018-12-15, 01:41:06,VALID,918.22,VALID,0.0,VALID,84.359,VALID,0.039,VALID,19.307,VALID,126.0,VALID,0.0,
2018-12-15, 01:42:06,VALID,918.218,VALID,0.0,VALID,83.286,VALID,0.038,VALID,19.32,VALID,128.0,VALID,0.0,
2018-12-15, 01:43:06,VALID,918.198,VALID,0.0,VALID,82.791,VALID,0.066,VALID,19.374,VALID,133.0,VALID,0.0,
2018-12-15, 01:44:06,VALID,918.206,VALID,0.0,VALID,81.852,VALID,0.035,VALID,19.443,VALID,125.0,VALID,0.0,
2018-12-15, 01:45:06,VALID,918.201,VALID,0.0,VALID,82.143,VALID,0.044,VALID,19.487,VALID,130.0,VALID,0.0,
2018-12-15, 01:46:06,VALID,918.181,VALID,0.0,VALID,82.686,VALID,0.043,VALID,19.492,VALID,128.0,VALID,0.0,
2018-12-15, 01:47:06,VALID,918.169,VALID,0.0,VALID,83.003,VALID,0.038,VALID,19.451,VALID,128.0,VALID,0.0,
2018-12-15, 01:48:06,VALID,918.15,VALID,0.0,VALID,82.772,VALID,0.044,VALID,19.46,VALID,129.0,VALID,0.0,
2018-12-15, 01:49:06,VALID,918.147,VALID,0.0,VALID,83.163,VALID,0.034,VALID,19.435,VALID,124.0,VALID,0.0,
2018-12-15, 01:50:06,VALID,918.124,VALID,0.0,VALID,83.255,VALID,0.046,VALID,19.409,VALID,125.0,VALID,0.0,
2018-12-15, 01:51:06,VALID,918.108,VALID,0.0,VALID,83.19,VALID,0.036,VALID,19.375,VALID,130.0,VALID,0.0,
2018-12-15, 01:52:06,VALID,918.086,VALID,0.0,VALID,83.0,VALID,0.03,VALID,19.386,VALID,130.0,VALID,0.0,
2018-12-15, 01:53:06,VALID,918.07,VALID,0.0,VALID,82.761,VALID,0.058,VALID,19.414,VALID,134.0,VALID,0.0,
2018-12-15, 01:54:06,VALID,918.056,VALID,0.0,VALID,82.324,VALID,0.04,VALID,19.466,VALID,130.0,VALID,0.0,
2018-12-15, 01:55:06,VALID,918.03,VALID,0.0,VALID,82.48,VALID,0.047,VALID,19.496,VALID,132.0,VALID,0.0,
2018-12-15, 01:56:06,VALID,918.018,VALID,0.0,VALID,82.586,VALID,0.051,VALID,19.48,VALID,123.0,VALID,0.0,
2018-12-15, 01:57:06,VALID,917.977,VALID,0.0,VALID,82.773,VALID,0.035,VALID,19.437,VALID,124.0,VALID,0.0,
2018-12-15, 01:58:06,VALID,917.979,VALID,0.0,VALID,82.93,VALID,0.039,VALID,19.392,VALID,119.0,VALID,0.0,
2018-12-15, 01:59:06,VALID,917.968,VALID,0.0,VALID,82.632,VALID,0.05,VALID,19.389,VALID,117.0,VALID,0.0,
2018-12-15, 02:00:06,VALID,917.925,VALID,0.0,VALID,82.426,VALID,0.041,VALID,19.398,VALID,114.0,VALID,0.0,
2018-12-15, 02:01:06,VALID,917.929,VALID,0.0,VALID,81.645,VALID,0.043,VALID,19.43,VALID,114.0,VALID,0.0,
2018-12-15, 02:02:06,VALID,917.907,VALID,0.0,VALID,81.251,VALID,0.05,VALID,19.461,VALID,111.0,VALID,0.0,
2018-12-15, 02:03:06,VALID,917.909,VALID,0.0,VALID,80.908,VALID,0.044,VALID,19.478,VALID,111.0,VALID,0.0,
2018-12-15, 02:04:06,VALID,917.924,VALID,0.0,VALID,81.358,VALID,0.043,VALID,19.448,VALID,113.0,VALID,0.0,
2018-12-15, 02:05:06,VALID,917.929,VALID,0.0,VALID,81.293,VALID,0.053,VALID,19.433,VALID,117.0,VALID,0.0,
2018-12-15, 02:06:06,VALID,917.946,VALID,0.0,VALID,81.508,VALID,0.042,VALID,19.458,VALID,120.0,VALID,0.0,
2018-12-15, 02:07:06,VALID,917.952,VALID,0.0,VALID,81.834,VALID,0.055,VALID,19.458,VALID,117.0,VALID,0.0,
2018-12-15, 02:08:06,VALID,917.956,VALID,0.0,VALID,82.144,VALID,0.052,VALID,19.439,VALID,117.0,VALID,0.0,
2018-12-15, 02:09:06,VALID,917.951,VALID,0.0,VALID,82.662,VALID,0.036,VALID,19.411,VALID,113.0,VALID,0.0,
2018-12-15, 02:10:06,VALID,917.948,VALID,0.0,VALID,82.859,VALID,0.028,VALID,19.373,VALID,109.0,VALID,0.0,
2018-12-15, 02:11:06,VALID,917.948,VALID,0.0,VALID,83.282,VALID,0.005,VALID,19.34,VALID,105.0,VALID,0.0,
2018-12-15, 02:12:06,VALID,917.918,VALID,0.0,VALID,83.659,VALID,0.009,VALID,19.291,VALID,105.0,VALID,0.0,
2018-12-15, 02:13:06,VALID,917.937,VALID,0.0,VALID,83.196,VALID,0.033,VALID,19.278,VALID,106.0,VALID,0.0,
2018-12-15, 02:14:06,VALID,917.928,VALID,0.0,VALID,83.705,VALID,0.018,VALID,19.283,VALID,100.0,VALID,0.0,
2018-12-15, 02:15:06,VALID,917.908,VALID,0.0,VALID,83.935,VALID,0.001,VALID,19.236,VALID,108.0,VALID,0.0,
2018-12-15, 02:16:06,VALID,917.911,VALID,0.0,VALID,83.759,VALID,0.007,VALID,19.187,VALID,111.0,VALID,0.0,
2018-12-15, 02:17:06,VALID,917.888,VALID,0.0,VALID,83.725,VALID,0.002,VALID,19.163,VALID,107.0,VALID,0.0,
2018-12-15, 02:18:06,VALID,917.867,VALID,0.0,VALID,83.65,VALID,-0.001,VALID,19.158,VALID,108.0,VALID,0.0,
2018-12-15, 02:19:06,VALID,917.866,VALID,0.0,VALID,83.877,VALID,-0.004,VALID,19.168,VALID,102.0,VALID,0.0,
2018-12-15, 02:20:06,VALID,917.861,VALID,0.0,VALID,84.592,VALID,-0.008,VALID,19.151,VALID,95.0,VALID,0.0,
2018-12-15, 02:21:06,VALID,917.853,VALID,0.0,VALID,85.21,VALID,0.001,VALID,19.1,VALID,83.0,VALID,0.0,
2018-12-15, 02:22:06,VALID,917.845,VALID,0.0,VALID,86.354,VALID,-0.013,VALID,19.041,VALID,72.0,VALID,0.0,
2018-12-15, 02:23:06,VALID,917.827,VALID,0.0,VALID,87.077,VALID,-0.001,VALID,18.951,VALID,70.0,VALID,0.0,
2018-12-15, 02:24:06,VALID,917.826,VALID,0.0,VALID,87.062,VALID,0.016,VALID,18.844,VALID,68.0,VALID,0.0,
2018-12-15, 02:25:06,VALID,917.815,VALID,0.0,VALID,87.235,VALID,0.022,VALID,18.799,VALID,69.0,VALID,0.0,
2018-12-15, 02:26:06,VALID,917.812,VALID,0.0,VALID,87.516,VALID,0.029,VALID,18.768,VALID,73.0,VALID,0.0,
2018-12-15, 02:27:06,VALID,917.784,VALID,0.0,VALID,88.139,VALID,0.026,VALID,18.731,VALID,72.0,VALID,0.0,
2018-12-15, 02:28:06,VALID,917.769,VALID,0.0,VALID,88.237,VALID,0.02,VALID,18.671,VALID,70.0,VALID,0.0,
2018-12-15, 02:29:06,VALID,917.76,VALID,0.0,VALID,88.08,VALID,0.019,VALID,18.647,VALID,74.0,VALID,0.0,
2018-12-15, 02:30:06,VALID,917.741,VALID,0.0,VALID,88.821,VALID,0.046,VALID,18.644,VALID,68.0,VALID,0.0,
2018-12-15, 02:31:06,VALID,917.705,VALID,0.0,VALID,88.831,VALID,0.053,VALID,18.605,VALID,66.0,VALID,0.0,
2018-12-15, 02:32:06,VALID,917.694,VALID,0.0,VALID,88.611,VALID,0.035,VALID,18.6,VALID,62.0,VALID,0.0,
2018-12-15, 02:33:06,VALID,917.668,VALID,0.0,VALID,88.294,VALID,0.031,VALID,18.621,VALID,63.0,VALID,0.0,
2018-12-15, 02:34:06,VALID,917.659,VALID,0.0,VALID,87.877,VALID,0.039,VALID,18.673,VALID,63.0,VALID,0.0,
2018-12-15, 02:35:06,VALID,917.647,VALID,0.0,VALID,87.118,VALID,0.034,VALID,18.73,VALID,72.0,VALID,0.0,
2018-12-15, 02:36:06,VALID,917.634,VALID,0.0,VALID,86.513,VALID,0.044,VALID,18.813,VALID,82.0,VALID,0.0,
2018-12-15, 02:37:06,VALID,917.643,VALID,0.0,VALID,85.825,VALID,0.022,VALID,18.886,VALID,97.0,VALID,0.0,
2018-12-15, 02:38:06,VALID,917.65,VALID,0.0,VALID,85.474,VALID,0.033,VALID,18.944,VALID,100.0,VALID,0.0,
2018-12-15, 02:39:06,VALID,917.637,VALID,0.0,VALID,85.966,VALID,0.04,VALID,18.996,VALID,96.0,VALID,0.0,
2018-12-15, 02:40:06,VALID,917.644,VALID,0.0,VALID,86.501,VALID,0.046,VALID,19.02,VALID,96.0,VALID,0.0,
2018-12-15, 02:41:06,VALID,917.639,VALID,0.0,VALID,86.852,VALID,0.062,VALID,19.015,VALID,76.0,VALID,0.0,
2018-12-15, 02:42:06,VALID,917.619,VALID,0.0,VALID,87.894,VALID,0.045,VALID,18.961,VALID,55.0,VALID,0.0,
2018-12-15, 02:43:06,VALID,917.609,VALID,0.0,VALID,87.317,VALID,0.04,VALID,18.853,VALID,45.0,VALID,0.0,
2018-12-15, 02:44:06,VALID,917.586,VALID,0.0,VALID,87.777,VALID,0.027,VALID,18.779,VALID,45.0,VALID,0.0,
2018-12-15, 02:45:06,VALID,917.579,VALID,0.0,VALID,87.953,VALID,0.024,VALID,18.71,VALID,45.0,VALID,0.0,
2018-12-15, 02:46:06,VALID,917.575,VALID,0.0,VALID,88.827,VALID,0.012,VALID,18.674,VALID,45.0,VALID,0.0,
2018-12-15, 02:47:06,VALID,917.57,VALID,0.0,VALID,90.053,VALID,0.013,VALID,18.607,VALID,45.0,VALID,0.0,
2018-12-15, 02:48:06,VALID,917.574,VALID,0.0,VALID,90.583,VALID,-0.0,VALID,18.537,VALID,45.0,VALID,0.0,
2018-12-15, 02:49:06,VALID,917.561,VALID,0.0,VALID,90.711,VALID,-0.008,VALID,18.446,VALID,42.0,VALID,0.0,
2018-12-15, 02:50:06,VALID,917.535,VALID,0.0,VALID,91.231,VALID,-0.0,VALID,18.345,VALID,42.0,VALID,0.0,
2018-12-15, 02:51:06,VALID,917.516,VALID,0.0,VALID,90.36,VALID,-0.005,VALID,18.314,VALID,49.0,VALID,0.0,
2018-12-15, 02:52:06,VALID,917.518,VALID,0.0,VALID,89.358,VALID,0.001,VALID,18.392,VALID,60.0,VALID,0.0,
2018-12-15, 02:53:06,VALID,917.486,VALID,0.0,VALID,88.465,VALID,0.012,VALID,18.543,VALID,67.0,VALID,0.0,
2018-12-15, 02:54:06,VALID,917.442,VALID,0.0,VALID,87.816,VALID,0.024,VALID,18.655,VALID,73.0,VALID,0.0,
2018-12-15, 02:55:06,VALID,917.414,VALID,0.0,VALID,87.422,VALID,0.037,VALID,18.724,VALID,79.0,VALID,0.0,
2018-12-15, 02:56:06,VALID,917.378,VALID,0.0,VALID,87.419,VALID,0.064,VALID,18.748,VALID,78.0,VALID,0.0,
2018-12-15, 02:57:06,VALID,917.349,VALID,0.0,VALID,87.477,VALID,0.069,VALID,18.756,VALID,75.0,VALID,0.0,
2018-12-15, 02:58:06,VALID,917.323,VALID,0.0,VALID,87.785,VALID,0.087,VALID,18.713,VALID,66.0,VALID,0.0,
2018-12-15, 02:59:06,VALID,917.307,VALID,0.0,VALID,87.889,VALID,0.091,VALID,18.634,VALID,65.0,VALID,0.0,
2018-12-15, 03:00:06,VALID,917.304,VALID,0.0,VALID,87.932,VALID,0.06,VALID,18.588,VALID,67.0,VALID,0.0,
2018-12-15, 03:01:06,VALID,917.289,VALID,0.0,VALID,87.189,VALID,0.086,VALID,18.573,VALID,73.0,VALID,0.0,
2018-12-15, 03:02:06,VALID,917.292,VALID,0.0,VALID,86.513,VALID,0.074,VALID,18.59,VALID,86.0,VALID,0.0,
2018-12-15, 03:03:06,VALID,917.286,VALID,0.0,VALID,86.268,VALID,0.079,VALID,18.627,VALID,97.0,VALID,0.0,
2018-12-15, 03:04:06,VALID,917.275,VALID,0.0,VALID,86.999,VALID,0.064,VALID,18.637,VALID,104.0,VALID,0.0,
2018-12-15, 03:05:06,VALID,917.267,VALID,0.0,VALID,88.101,VALID,0.067,VALID,18.573,VALID,130.0,VALID,0.0,
2018-12-15, 03:06:06,VALID,917.271,VALID,0.0,VALID,88.896,VALID,0.075,VALID,18.513,VALID,126.0,VALID,0.0,
2018-12-15, 03:07:06,VALID,917.255,VALID,0.0,VALID,88.412,VALID,0.086,VALID,18.482,VALID,124.0,VALID,0.0,
2018-12-15, 03:08:06,VALID,917.242,VALID,0.0,VALID,88.417,VALID,0.066,VALID,18.457,VALID,119.0,VALID,0.0,
2018-12-15, 03:09:06,VALID,917.216,VALID,0.0,VALID,90.107,VALID,0.083,VALID,18.437,VALID,112.0,VALID,0.0,
2018-12-15, 03:10:06,VALID,917.203,VALID,0.0,VALID,91.213,VALID,0.048,VALID,18.376,VALID,101.0,VALID,0.0,
2018-12-15, 03:11:06,VALID,917.2,VALID,0.0,VALID,91.702,VALID,0.018,VALID,18.315,VALID,104.0,VALID,0.0,
2018-12-15, 03:12:06,VALID,917.205,VALID,0.0,VALID,92.487,VALID,-0.012,VALID,18.265,VALID,105.0,VALID,0.0,
2018-12-15, 03:13:06,VALID,917.198,VALID,0.0,VALID,92.851,VALID,-0.003,VALID,18.203,VALID,108.0,VALID,0.0,
2018-12-15, 03:14:06,VALID,917.178,VALID,0.0,VALID,93.338,VALID,-0.0,VALID,18.18,VALID,124.0,VALID,0.0,
2018-12-15, 03:15:06,VALID,917.175,VALID,0.0,VALID,93.933,VALID,0.003,VALID,18.178,VALID,123.0,VALID,0.0,
2018-12-15, 03:16:06,VALID,917.18,VALID,0.0,VALID,94.636,VALID,0.025,VALID,18.173,VALID,123.0,VALID,0.0,
2018-12-15, 03:17:06,VALID,917.178,VALID,0.0,VALID,94.831,VALID,0.009,VALID,18.136,VALID,122.0,VALID,0.0,
2018-12-15, 03:18:06,VALID,917.177,VALID,0.0,VALID,94.536,VALID,0.004,VALID,18.093,VALID,122.0,VALID,0.0,
2018-12-15, 03:19:06,VALID,917.18,VALID,0.0,VALID,93.807,VALID,0.003,VALID,18.114,VALID,125.0,VALID,0.0,
2018-12-15, 03:20:06,VALID,917.164,VALID,0.0,VALID,93.679,VALID,-0.006,VALID,18.183,VALID,129.0,VALID,0.0,
2018-12-15, 03:21:06,VALID,917.157,VALID,0.0,VALID,93.003,VALID,0.012,VALID,18.222,VALID,125.0,VALID,0.0,
2018-12-15, 03:22:06,VALID,917.137,VALID,0.0,VALID,92.517,VALID,0.018,VALID,18.247,VALID,126.0,VALID,0.0,
2018-12-15, 03:23:06,VALID,917.139,VALID,0.0,VALID,91.671,VALID,0.02,VALID,18.278,VALID,125.0,VALID,0.0,
2018-12-15, 03:24:06,VALID,917.12,VALID,0.0,VALID,91.535,VALID,0.03,VALID,18.311,VALID,115.0,VALID,0.0,
2018-12-15, 03:25:06,VALID,917.096,VALID,0.0,VALID,91.484,VALID,-0.018,VALID,18.284,VALID,103.0,VALID,0.0,
2018-12-15, 03:26:06,VALID,917.083,VALID,0.0,VALID,90.755,VALID,-0.044,VALID,18.255,VALID,103.0,VALID,0.0,
2018-12-15, 03:27:06,VALID,917.095,VALID,0.0,VALID,89.989,VALID,-0.048,VALID,18.269,VALID,100.0,VALID,0.0,
2018-12-15, 03:28:06,VALID,917.08,VALID,0.0,VALID,89.142,VALID,-0.032,VALID,18.288,VALID,102.0,VALID,0.0,
2018-12-15, 03:29:06,VALID,917.088,VALID,0.0,VALID,88.884,VALID,-0.031,VALID,18.298,VALID,100.0,VALID,0.0,
2018-12-15, 03:30:06,VALID,917.09,VALID,0.0,VALID,88.927,VALID,-0.036,VALID,18.29,VALID,104.0,VALID,0.0,
2018-12-15, 03:31:06,VALID,917.075,VALID,0.0,VALID,89.002,VALID,-0.039,VALID,18.278,VALID,105.0,VALID,0.0,
2018-12-15, 03:32:06,VALID,917.08,VALID,0.0,VALID,89.092,VALID,-0.039,VALID,18.263,VALID,109.0,VALID,0.0,
2018-12-15, 03:33:06,VALID,917.069,VALID,0.0,VALID,88.904,VALID,-0.035,VALID,18.251,VALID,115.0,VALID,0.0,
2018-12-15, 03:34:06,VALID,917.059,VALID,0.0,VALID,87.61,VALID,-0.04,VALID,18.318,VALID,114.0,VALID,0.0,
2018-12-15, 03:35:06,VALID,917.043,VALID,0.0,VALID,86.862,VALID,-0.039,VALID,18.412,VALID,113.0,VALID,0.0,
2018-12-15, 03:36:06,VALID,917.032,VALID,0.0,VALID,86.618,VALID,-0.04,VALID,18.475,VALID,105.0,VALID,0.0,
2018-12-15, 03:37:06,VALID,917.019,VALID,0.0,VALID,86.581,VALID,-0.041,VALID,18.518,VALID,104.0,VALID,0.0,
2018-12-15, 03:38:06,VALID,917.01,VALID,0.0,VALID,86.533,VALID,-0.032,VALID,18.543,VALID,103.0,VALID,0.0,
2018-12-15, 03:39:06,VALID,917.003,VALID,0.0,VALID,86.451,VALID,-0.039,VALID,18.58,VALID,102.0,VALID,0.0,
2018-12-15, 03:40:06,VALID,916.954,VALID,0.0,VALID,86.797,VALID,-0.043,VALID,18.594,VALID,105.0,VALID,0.0,
2018-12-15, 03:41:06,VALID,916.968,VALID,0.0,VALID,87.157,VALID,-0.02,VALID,18.561,VALID,104.0,VALID,0.0,
2018-12-15, 03:42:06,VALID,916.947,VALID,0.0,VALID,87.217,VALID,-0.036,VALID,18.502,VALID,106.0,VALID,0.0,
2018-12-15, 03:43:06,VALID,916.951,VALID,0.0,VALID,86.631,VALID,-0.038,VALID,18.475,VALID,106.0,VALID,0.0,